[[{"header":{"parameterUnit":"m.s-1","parameterCategory":1,"la1":30.2991,"la2":30.254,"lo1":-89.0895,"lo2":-89.0444,"dy":0.0017,"dx":0.0017,"nx":28,"ny":28,"refTime":"2023-07-28T03:00:00:Z","depth":0,"parameterNumber":2,"parameterNumberName":"U-component_of_WINDS"},"data":[0,0,0,0,0,0,0,0,0,0,0,0,0,0,0,0,0,0,0,0,0,0,0,0,0,0,0,0,0,0,0,0,0,0,0,0,0,0,0,0,0,0,0,0,0,0,0,0,0,0,0,0,0,0,0,0,0,0,-0.3053,-0.3053,0,-0.3017,-0.3016,-0.3016,-0.3023,-0.3024,-0.3025,-0.3025,-0.2988,-0.2986,-0.2984,0,0,0,0,0,0,0,0,0,0,0,0,0,-0.3131,-0.313,-0.3054,-0.3053,-0.3053,-0.3017,-0.3016,-0.3016,-0.3023,-0.3024,-0.3025,-0.3026,-0.2988,-0.2986,-0.2984,0,0,0,0,0,0,0,0,0,0,0,0,0,-0.3096,-0.3129,-0.3054,-0.3052,-0.3052,-0.3017,-0.3016,-0.3016,-0.3023,-0.3024,-0.3025,-0.3026,-0.2989,-0.2986,-0.2984,-0.2948,0,0,-0.2976,-0.2975,0,0,0,0,0,0,0,0,-0.3098,-0.3093,-0.3053,-0.3052,-0.3051,-0.3026,-0.303,-0.2993,-0.3023,-0.3034,-0.3025,-0.3027,-0.2999,-0.2996,-0.2987,-0.2947,-0.2945,-0.2976,-0.2975,-0.2974,-0.2973,0,0,0,0,0,0,0,-0.3101,-0.3095,-0.3039,-0.3052,-0.3051,-0.3053,-0.305,-0.3023,-0.3011,-0.3033,-0.3033,-0.3029,-0.2999,-0.2989,-0.2986,-0.2944,-0.2976,-0.2974,-0.2973,-0.2972,-0.2873,-0.2872,0,0,0,0,0,0,-0.3103,-0.3097,-0.304,-0.3038,-0.3078,-0.3051,-0.3047,-0.3033,-0.3012,-0.3009,-0.3028,-0.303,-0.2993,-0.2989,-0.2985,-0.2942,-0.2974,-0.2971,-0.297,-0.2874,-0.2873,-0.2872,0,0,0,0,0,0,-0.3105,-0.3098,-0.3042,-0.3067,-0.306,-0.3049,-0.3033,-0.3032,-0.3022,-0.3008,-0.3006,-0.302,-0.2994,-0.2988,-0.2957,-0.2941,-0.297,-0.2968,-0.2876,-0.2874,-0.2873,-0.2856,0,0,0,0,0,0,-0.3107,-0.3099,-0.3085,-0.3067,-0.3059,-0.3015,-0.3032,-0.303,-0.3017,-0.3019,-0.3,-0.2998,-0.2994,-0.2961,-0.2955,-0.2938,-0.2966,-0.2877,-0.2875,-0.2873,-0.2858,-0.2854,-0.285,0,0,0,0,0,-0.311,-0.3082,-0.3084,-0.3077,-0.3041,-0.3014,-0.3009,-0.3005,-0.3016,-0.3002,-0.2994,-0.2998,-0.2944,-0.2958,-0.2951,-0.2933,-0.2878,-0.2876,-0.2873,-0.2859,-0.2855,-0.285,0,0,0,0,0,0,-0.3098,-0.3079,-0.3082,-0.3047,-0.3032,-0.3015,-0.2997,-0.3,-0.2982,-0.2984,-0.298,-0.2976,-0.2944,-0.2936,-0.2952,-0.2898,-0.2912,-0.2908,-0.2904,-0.29,-0.2896,-0.2899,-0.2964,0,0,0,0,0,-0.3092,-0.307,-0.3055,-0.3026,-0.3018,-0.3009,-0.2997,-0.2995,-0.2979,-0.2973,-0.2962,-0.2947,-0.2926,-0.2912,-0.2893,-0.2857,-0.2853,-0.2841,-0.2837,-0.2834,-0.2831,-0.2811,-0.2806,-0.2864,-0.2864,-0.2864,0,0,-0.3078,-0.3065,-0.3051,-0.3023,-0.3011,-0.299,-0.3004,-0.298,-0.2964,-0.2969,-0.294,-0.2931,-0.2914,-0.288,-0.2865,-0.2872,-0.2814,-0.2831,-0.2829,-0.2827,-0.2808,-0.2803,-0.2798,-0.2862,-0.2862,-0.2862,0,0,-0.3041,-0.3029,-0.3003,-0.2991,-0.2973,-0.2967,-0.2961,-0.2944,-0.2938,-0.2908,-0.2912,-0.2893,-0.2857,-0.2845,-0.2834,-0.2793,-0.2796,-0.2786,-0.2767,-0.2748,-0.2743,-0.2739,-0.2725,-0.2719,-0.2783,-0.2783,-0.2783,0,-0.3026,-0.2993,-0.299,-0.2966,-0.2953,-0.2957,-0.2932,-0.292,-0.2896,-0.2888,-0.2896,-0.2852,-0.284,-0.2804,-0.2794,-0.2785,-0.2778,-0.2788,-0.2744,-0.274,-0.2736,-0.2722,-0.2717,-0.2782,-0.2782,-0.2782,-0.2782,0,-0.2976,-0.2953,-0.2934,-0.2911,-0.2897,-0.2872,-0.2865,-0.2851,-0.2851,-0.2844,-0.2814,-0.28,-0.2778,-0.2769,-0.2769,-0.2733,-0.2738,-0.2745,-0.276,-0.273,-0.2716,-0.2711,-0.278,-0.2781,-0.2781,-0.2781,0,0,-0.293,-0.2906,-0.2899,-0.2889,-0.2869,-0.2851,-0.2827,-0.2805,-0.2793,-0.2777,-0.2756,-0.2726,-0.2733,-0.272,-0.2719,-0.2702,-0.2671,-0.2711,-0.2711,-0.2704,-0.263,-0.2625,-0.2619,-0.2673,-0.2672,-0.2671,-0.2632,0,-0.2892,-0.2848,-0.2845,-0.2806,-0.2785,-0.2789,-0.2767,-0.2753,-0.2746,-0.2728,-0.2721,-0.2699,-0.271,-0.2702,-0.2686,-0.2678,-0.2656,-0.2681,-0.2654,-0.2653,-0.2658,-0.2612,-0.2606,-0.2569,-0.2627,-0.2626,-0.2625,0,-0.2841,-0.2823,-0.2782,-0.2765,-0.2756,-0.2737,-0.2717,-0.2699,-0.2683,-0.268,-0.2666,-0.2666,-0.2641,-0.2657,-0.2623,-0.264,-0.2629,-0.2623,-0.2622,-0.2619,-0.2637,-0.2608,-0.2557,-0.2552,-0.2617,-0.2618,-0.2618,0,-0.2812,-0.2778,-0.2749,-0.274,-0.272,-0.2706,-0.2697,-0.2682,-0.2669,-0.2652,-0.2643,-0.2623,-0.2612,-0.2596,-0.2592,-0.2604,-0.2557,-0.2573,-0.2554,-0.2554,-0.2544,-0.2544,-0.2491,-0.2537,-0.2537,-0.2537,-0.2537,0,-0.277,-0.2744,-0.2735,-0.2718,-0.2689,-0.2686,-0.2658,-0.265,-0.2637,-0.2617,-0.262,-0.2602,-0.2596,-0.2577,-0.2574,-0.2546,-0.2541,-0.2537,-0.2536,-0.2537,-0.2537,-0.2529,-0.2532,-0.2535,-0.2536,-0.2536,-0.2536,0,-0.2733,-0.2726,-0.2694,-0.2678,-0.2673,-0.2653,-0.2639,-0.2622,-0.2616,-0.2591,-0.2585,-0.2576,-0.2553,-0.2547,-0.2521,-0.2518,-0.2485,-0.2487,-0.2491,-0.2491,-0.2472,-0.2474,-0.2411,-0.2403,-0.2454,-0.2454,-0.2453,0,-0.2706,-0.2687,-0.2668,-0.2655,-0.2646,-0.2625,-0.2612,-0.2608,-0.2594,-0.2574,-0.256,-0.2538,-0.252,-0.2485,-0.2475,-0.2455,-0.2456,-0.2435,-0.2453,-0.2454,-0.2456,-0.2457,-0.2455,-0.2432,-0.2432,-0.2431,-0.2431,0,-0.266,-0.2657,-0.2638,-0.2617,-0.2602,-0.2586,-0.257,-0.2559,-0.2553,-0.2538,-0.2515,-0.2501,-0.2474,-0.2452,-0.2432,-0.2423,-0.2426,-0.2425,-0.242,-0.242,-0.2423,-0.2421,-0.2482,-0.2427,-0.2427,-0.2428,-0.2428,-0.2428,-0.2627,-0.261,-0.2594,-0.2573,-0.2561,-0.2546,-0.2529,-0.2521,-0.2502,-0.2479,-0.2478,-0.2454,-0.2438,-0.2411,-0.2401,-0.2382,-0.2388,-0.238,-0.2378,-0.2376,-0.2374,-0.2426,-0.2378,-0.2378,-0.2378,-0.2378,-0.2378,0,-0.2581,-0.2571,-0.2551,-0.2529,-0.2513,-0.2517,-0.25,-0.2485,-0.2464,-0.2449,-0.2432,-0.2406,-0.2385,-0.2374,-0.2353,-0.234,-0.2341,-0.2334,-0.2335,-0.2333,-0.237,-0.2377,-0.2334,-0.2334,-0.2334,-0.2334,-0.2334,-0.2334,-0.2555,-0.2526,-0.2522,-0.2487,-0.2478,-0.2453,-0.2443,-0.243,-0.2418,-0.2389,-0.2372,-0.2365,-0.2352,-0.233,-0.2311,-0.2308,-0.23,-0.2294,-0.2292,-0.2326,-0.2331,-0.2335,-0.2341,-0.2292,-0.2292,-0.2256,-0.2256,-0.2256]},{"header":{"parameterUnit":"m.s-1","parameterCategory":1,"la1":30.2991,"la2":30.254,"lo1":-89.0895,"lo2":-89.0444,"dy":0.0017,"dx":0.0017,"nx":28,"ny":28,"refTime":"2023-07-28T03:00:00:Z","depth":0,"parameterNumber":3,"parameterNumberName":"V-component_of_WINDS"},"data":[0,0,0,0,0,0,0,0,0,0,0,0,0,0,0,0,0,0,0,0,0,0,0,0,0,0,0,0,0,0,0,0,0,0,0,0,0,0,0,0,0,0,0,0,0,0,0,0,0,0,0,0,0,0,0,0,0,0,2.4221,2.422,0,2.4088,2.4087,2.4085,2.3978,2.3977,2.3976,2.3975,2.3835,2.3832,2.3829,0,0,0,0,0,0,0,0,0,0,0,0,0,2.438,2.4378,2.4222,2.422,2.4218,2.4088,2.4086,2.4085,2.3979,2.3977,2.3976,2.3975,2.3835,2.3832,2.3829,0,0,0,0,0,0,0,0,0,0,0,0,0,2.4286,2.4377,2.4222,2.415,2.4142,2.4089,2.4086,2.4084,2.3979,2.3977,2.3976,2.3974,2.3837,2.3833,2.3828,2.3835,0,0,2.3816,2.3814,0,0,0,0,0,0,0,0,2.4291,2.428,2.4162,2.4155,2.4146,2.4048,2.4091,2.4,2.3979,2.4041,2.3975,2.3973,2.3907,2.3897,2.3875,2.3828,2.3822,2.3815,2.3813,2.3811,2.381,0,0,0,0,0,0,0,2.4298,2.4285,2.4169,2.416,2.4151,2.4123,2.4107,2.4073,2.3984,2.4035,2.4027,2.4013,2.3902,2.3879,2.3871,2.382,2.3816,2.3812,2.3809,2.3808,2.3771,2.3773,0,0,0,0,0,0,2.4316,2.4291,2.4173,2.4165,2.4216,2.4121,2.4104,2.4081,2.3984,2.3968,2.4015,2.4009,2.3887,2.3876,2.3866,2.3867,2.3811,2.3807,2.3805,2.377,2.3772,2.3773,0,0,0,0,0,0,2.432,2.4307,2.4178,2.4226,2.4207,2.412,2.4095,2.4079,2.4057,2.3969,2.3952,2.4008,2.3885,2.3871,2.3843,2.386,2.3805,2.3802,2.3768,2.377,2.3772,2.387,0,0,0,0,0,0,2.4325,2.4309,2.4311,2.4227,2.4205,2.416,2.4096,2.4078,2.405,2.4041,2.3958,2.3943,2.3883,2.385,2.3839,2.3854,2.3798,2.3766,2.3769,2.3772,2.3865,2.3875,2.3884,0,0,0,0,0,2.4331,2.4343,2.4312,2.4298,2.4207,2.4161,2.4149,2.4081,2.4052,2.4053,2.3997,2.3945,2.386,2.3848,2.3835,2.3849,2.3765,2.3768,2.3771,2.386,2.3873,2.3884,0,0,0,0,0,0,2.443,2.4331,2.4295,2.428,2.423,2.4143,2.4143,2.4097,2.4053,2.4046,2.3962,2.3944,2.3926,2.3884,2.3872,2.3849,2.3806,2.3807,2.3878,2.3889,2.3899,2.3909,2.3795,0,0,0,0,0,2.4451,2.4424,2.4337,2.4332,2.4309,2.4231,2.4208,2.4161,2.4105,2.4083,2.4024,2.3971,2.3932,2.3908,2.3867,2.3858,2.3838,2.386,2.387,2.3878,2.388,2.3872,2.3881,2.3784,2.3784,2.3784,0,0,2.4493,2.4435,2.4422,2.4351,2.4307,2.4279,2.4214,2.4187,2.4166,2.4078,2.4049,2.4004,2.3939,2.392,2.3909,2.3885,2.3903,2.3883,2.389,2.3887,2.3877,2.3886,2.3894,2.3787,2.3786,2.3786,0,0,2.4555,2.4508,2.4499,2.4456,2.439,2.4338,2.4336,2.4256,2.4223,2.4193,2.4127,2.4099,2.4034,2.399,2.396,2.4005,2.3956,2.3994,2.4045,2.4038,2.4046,2.4052,2.4069,2.4076,2.3996,2.3996,2.3996,0,2.4614,2.4572,2.45,2.4478,2.4449,2.4369,2.4359,2.432,2.4244,2.4225,2.4199,2.4116,2.4066,2.4037,2.4048,2.4026,2.402,2.4003,2.405,2.4056,2.4061,2.4076,2.4082,2.4001,2.4001,2.4,2.4,0,2.4648,2.462,2.462,2.4551,2.4521,2.4505,2.443,2.4408,2.4362,2.4313,2.4282,2.422,2.4166,2.4155,2.4109,2.4119,2.4106,2.4066,2.4021,2.4077,2.4089,2.4094,2.4009,2.4007,2.4005,2.4004,0,0,2.477,2.4661,2.4663,2.463,2.4551,2.4527,2.4507,2.4455,2.4438,2.4388,2.4369,2.4315,2.4278,2.4244,2.4193,2.4187,2.4227,2.4148,2.4145,2.4165,2.4234,2.4265,2.4273,2.4194,2.4195,2.4196,2.424,0,2.482,2.4782,2.4716,2.4698,2.4671,2.4595,2.4577,2.4526,2.4479,2.4448,2.4394,2.4358,2.4312,2.4291,2.4281,2.4225,2.424,2.422,2.4175,2.4174,2.4195,2.4279,2.4312,2.4356,2.4244,2.4245,2.4245,0,2.4873,2.483,2.481,2.4733,2.4719,2.4705,2.4652,2.4623,2.4563,2.4529,2.4491,2.4436,2.4409,2.4368,2.433,2.4318,2.4295,2.4265,2.4264,2.4258,2.4214,2.4276,2.4369,2.4376,2.4252,2.4252,2.4251,0,2.4965,2.4901,2.488,2.4854,2.4765,2.4756,2.4718,2.4657,2.463,2.4583,2.4565,2.4515,2.4488,2.445,2.4383,2.4359,2.4352,2.4305,2.4323,2.4325,2.4326,2.4327,2.4417,2.431,2.431,2.431,2.431,0,2.5029,2.5019,2.492,2.4908,2.4895,2.482,2.4808,2.4763,2.4709,2.4686,2.4616,2.4595,2.4507,2.4475,2.4422,2.4399,2.4387,2.4358,2.4344,2.4365,2.4369,2.435,2.4345,2.4312,2.4311,2.4311,2.4311,0,2.5129,2.5063,2.5036,2.4953,2.4932,2.4926,2.4855,2.4839,2.4788,2.4759,2.4748,2.4667,2.4626,2.4555,2.4493,2.4457,2.4445,2.4421,2.4466,2.4458,2.448,2.4479,2.4562,2.4569,2.4458,2.4459,2.446,0,2.5175,2.5166,2.5083,2.5063,2.5028,2.4997,2.4969,2.4894,2.4868,2.4799,2.4792,2.4746,2.4706,2.4644,2.4579,2.4531,2.4506,2.4538,2.4498,2.4519,2.4507,2.4509,2.4508,2.4547,2.4549,2.455,2.4551,0,2.5262,2.523,2.5194,2.5146,2.5116,2.5074,2.5029,2.5016,2.493,2.4904,2.4863,2.4831,2.4769,2.4725,2.4668,2.4627,2.4575,2.4564,2.4566,2.4588,2.4615,2.4601,2.4492,2.4563,2.4562,2.4561,2.456,2.456,2.5337,2.5326,2.5266,2.5228,2.5186,2.5146,2.5127,2.5074,2.5039,2.4983,2.494,2.4902,2.4842,2.4761,2.4723,2.4691,2.4667,2.4669,2.467,2.4672,2.4681,2.462,2.468,2.4679,2.4679,2.4679,2.4678,0,2.5422,2.538,2.5345,2.5285,2.5255,2.521,2.5157,2.5135,2.5103,2.5051,2.5013,2.4965,2.4922,2.4853,2.4804,2.4792,2.4767,2.4781,2.4782,2.4773,2.4704,2.4708,2.4803,2.4803,2.4803,2.4803,2.4803,2.4802,2.5463,2.5442,2.5402,2.536,2.5317,2.528,2.5254,2.5216,2.5175,2.5125,2.5089,2.5045,2.4987,2.4933,2.489,2.4871,2.4856,2.4879,2.4853,2.479,2.4778,2.4767,2.477,2.4876,2.4876,2.4924,2.4925,2.4925]}]]